Time,TemperatureF,DewpointF,PressureIn,WindDirection,WindDirectionDegrees,WindSpeedMPH,WindSpeedGustMPH,Humidity,HourlyPrecipIn,Conditions,Clouds,dailyrainin,SoftwareType,DateUTC
2013-09-27 00:00:00,68.4,60.9,29.99,SE,145,0.0,5.0,77,0.00,,,0.00,VWS V14.01,2013-09-27 05:00:00,
2013-09-27 00:01:00,68.5,61.0,29.99,SSE,165,7.5,7.5,77,0.00,,,0.00,VWS V14.01,2013-09-27 05:01:00,
2013-09-27 00:06:00,68.5,61.0,29.99,South,176,1.5,5.0,77,0.00,,,0.00,VWS V14.01,2013-09-27 05:06:00,
2013-09-27 00:11:00,68.5,61.0,29.99,SSE,155,1.5,5.0,77,0.00,,,0.00,VWS V14.01,2013-09-27 05:11:00,
2013-09-27 00:16:00,68.4,60.9,29.99,SE,134,1.5,5.0,77,0.00,,,0.00,VWS V14.01,2013-09-27 05:16:00,
2013-09-27 00:21:00,68.5,61.0,29.99,SSW,193,3.0,5.0,77,0.00,,,0.00,VWS V14.01,2013-09-27 05:21:00,
2013-09-27 00:26:00,68.7,61.2,29.99,ESE,121,3.0,6.0,77,0.00,,,0.00,VWS V14.01,2013-09-27 05:26:00,
2013-09-27 00:31:00,68.8,60.9,29.99,SSE,152,3.0,6.0,76,0.00,,,0.00,VWS V14.01,2013-09-27 05:31:00,
2013-09-27 00:36:00,68.8,61.3,29.99,SSE,167,1.5,6.0,77,0.00,,,0.00,VWS V14.01,2013-09-27 05:36:00,
2013-09-27 00:41:00,68.8,61.3,29.99,SSE,150,0.0,6.0,77,0.00,,,0.00,VWS V14.01,2013-09-27 05:41:00,
2013-09-27 00:46:00,68.8,61.3,29.99,SSE,159,0.0,6.0,77,0.00,,,0.00,VWS V14.01,2013-09-27 05:46:00,
2013-09-27 00:51:00,68.7,61.2,30.00,SE,136,0.0,6.0,77,0.00,,,0.00,VWS V14.01,2013-09-27 05:51:00,
2013-09-27 00:56:00,68.5,61.0,29.99,East,98,1.5,6.0,77,0.00,,,0.00,VWS V14.01,2013-09-27 05:56:00,
2013-09-27 01:00:00,68.4,60.9,29.99,SE,145,0.0,5.0,77,0.00,,,0.00,VWS V15.00,2013-09-27 06:00:00,
2013-09-27 01:01:00,68.3,61.2,29.99,SE,135,0.0,6.0,78,0.00,,,0.00,VWS V14.01,2013-09-27 06:01:00,
2013-09-27 01:06:00,68.1,61.0,29.99,SSE,162,1.5,6.0,78,0.00,,,0.00,VWS V14.01,2013-09-27 06:06:00,
2013-09-27 01:11:00,68.0,61.2,30.00,SSW,193,0.0,6.0,79,0.00,,,0.00,VWS V14.01,2013-09-27 06:11:00,
2013-09-27 01:16:00,67.9,61.2,30.00,SSE,165,0.0,6.0,79,0.00,,,0.00,VWS V14.01,2013-09-27 06:16:00,
2013-09-27 01:21:00,67.9,61.2,30.00,SSE,167,1.5,6.0,79,0.00,,,0.00,VWS V14.01,2013-09-27 06:21:00,
2013-09-27 01:26:00,67.9,61.2,30.00,SSE,158,1.5,6.0,79,0.00,,,0.00,VWS V14.01,2013-09-27 06:26:00,
2013-09-27 01:31:00,67.9,61.2,30.00,South,173,0.0,6.0,79,0.00,,,0.00,VWS V14.01,2013-09-27 06:31:00,
2013-09-27 01:36:00,67.8,61.1,30.00,South,174,0.0,6.0,79,0.00,,,0.00,VWS V14.01,2013-09-27 06:36:00,
2013-09-27 01:41:00,67.7,61.3,30.00,SE,143,0.0,6.0,80,0.00,,,0.00,VWS V14.01,2013-09-27 06:41:00,
2013-09-27 01:46:00,67.5,61.1,30.00,South,170,0.0,6.0,80,0.00,,,0.00,VWS V14.01,2013-09-27 06:46:00,
2013-09-27 01:51:00,67.4,61.0,30.00,SSE,158,0.0,6.0,80,0.00,,,0.00,VWS V14.01,2013-09-27 06:51:00,
2013-09-27 01:56:00,67.2,61.2,30.00,SSE,149,0.0,6.0,81,0.00,,,0.00,VWS V14.01,2013-09-27 06:56:00,
2013-09-27 02:00:00,67.1,61.1,30.00,SSE,148,0.0,6.0,81,0.00,,,0.00,VWS V14.01,2013-09-27 07:00:00,
2013-09-27 02:01:00,67.0,61.0,30.00,SSE,150,0.0,1.0,81,0.00,,,0.00,VWS V14.01,2013-09-27 07:01:00,
2013-09-27 02:06:00,66.9,61.2,30.00,SE,144,0.0,1.0,82,0.00,,,0.00,VWS V14.01,2013-09-27 07:06:00,
2013-09-27 02:11:00,66.8,61.1,30.01,South,188,1.5,1.5,82,0.00,,,0.00,VWS V14.01,2013-09-27 07:11:00,
2013-09-27 02:16:00,66.6,60.9,30.01,SSE,164,1.5,1.5,82,0.00,,,0.00,VWS V14.01,2013-09-27 07:16:00,
2013-09-27 02:21:00,66.4,60.7,30.00,SSE,156,0.0,1.0,82,0.00,,,0.00,VWS V14.01,2013-09-27 07:21:00,
2013-09-27 02:26:00,66.2,60.9,30.00,South,185,0.0,1.0,83,0.00,,,0.00,VWS V14.01,2013-09-27 07:26:00,
2013-09-27 02:31:00,66.1,60.8,30.00,South,179,0.0,1.0,83,0.00,,,0.00,VWS V14.01,2013-09-27 07:31:00,
2013-09-27 02:36:00,65.8,60.8,30.00,SSE,150,0.0,1.0,84,0.00,,,0.00,VWS V14.01,2013-09-27 07:36:00,
2013-09-27 02:41:00,65.6,60.6,30.00,SE,135,0.0,1.0,84,0.00,,,0.00,VWS V14.01,2013-09-27 07:41:00,
2013-09-27 02:46:00,65.4,60.8,30.00,SE,132,0.0,2.0,85,0.00,,,0.00,VWS V14.01,2013-09-27 07:46:00,
2013-09-27 02:49:00,65.3,60.7,30.00,SSE,155,1.5,2.0,85,0.00,,,0.00,VWS V14.01,2013-09-27 07:49:00,
2013-09-27 02:54:00,65.2,60.6,30.00,South,174,0.0,2.0,85,0.00,,,0.00,VWS V14.01,2013-09-27 07:54:00,
2013-09-27 02:59:00,65.3,60.7,30.00,East,80,0.0,2.0,85,0.00,,,0.00,VWS V14.01,2013-09-27 07:59:00,
2013-09-27 03:00:00,67.1,61.1,30.00,SSE,148,0.0,6.0,81,0.00,,,0.00,VWS V15.00,2013-09-27 08:00:00,
2013-09-27 03:04:00,65.2,60.6,30.00,SSE,165,1.5,2.0,85,0.00,,,0.00,VWS V14.01,2013-09-27 08:04:00,
2013-09-27 03:09:00,65.2,60.6,30.00,SSE,159,0.0,2.0,85,0.00,,,0.00,VWS V14.01,2013-09-27 08:09:00,
2013-09-27 03:14:00,65.1,60.5,30.00,ESE,102,0.0,2.0,85,0.00,,,0.00,VWS V14.01,2013-09-27 08:14:00,
2013-09-27 03:19:00,65.2,60.6,30.00,SSE,153,0.0,2.0,85,0.00,,,0.00,VWS V14.01,2013-09-27 08:19:00,
2013-09-27 03:24:00,65.2,60.6,30.00,South,191,1.5,2.0,85,0.00,,,0.00,VWS V14.01,2013-09-27 08:24:00,
2013-09-27 03:29:00,65.3,60.7,30.00,SE,125,0.0,2.0,85,0.00,,,0.00,VWS V14.01,2013-09-27 08:29:00,
2013-09-27 03:34:00,65.2,60.6,30.00,SSE,160,0.0,2.0,85,0.00,,,0.00,VWS V14.01,2013-09-27 08:34:00,
2013-09-27 03:39:00,65.1,60.5,30.00,ESE,122,0.0,2.0,85,0.00,,,0.00,VWS V14.01,2013-09-27 08:39:00,
2013-09-27 03:44:00,65.0,60.7,30.01,ENE,77,0.0,4.0,86,0.00,,,0.00,VWS V14.01,2013-09-27 08:44:00,
2013-09-27 03:49:00,65.0,60.7,30.00,SSE,153,0.0,4.0,86,0.00,,,0.00,VWS V14.01,2013-09-27 08:49:00,
2013-09-27 03:54:00,64.8,60.5,30.01,SSE,152,0.0,4.0,86,0.00,,,0.00,VWS V14.01,2013-09-27 08:54:00,
2013-09-27 03:59:00,64.7,60.8,30.01,SSE,158,0.0,4.0,87,0.00,,,0.00,VWS V14.01,2013-09-27 08:59:00,
2013-09-27 04:00:00,64.7,60.8,30.01,SSE,158,0.0,4.0,87,0.00,,,0.00,VWS V14.01,2013-09-27 09:00:00,
2013-09-27 04:04:00,64.6,60.7,30.01,SSW,208,1.5,1.5,87,0.00,,,0.00,VWS V14.01,2013-09-27 09:04:00,
2013-09-27 04:09:00,64.5,60.5,30.00,SSE,160,1.5,1.5,87,0.00,,,0.00,VWS V14.01,2013-09-27 09:09:00,
2013-09-27 04:14:00,64.4,60.5,30.01,SSW,208,1.5,2.0,87,0.00,,,0.00,VWS V14.01,2013-09-27 09:14:00,
2013-09-27 04:19:00,64.4,60.5,30.01,East,84,0.0,2.0,87,0.00,,,0.00,VWS V14.01,2013-09-27 09:19:00,
2013-09-27 04:24:00,64.5,60.5,30.01,South,174,1.5,3.0,87,0.00,,,0.00,VWS V14.01,2013-09-27 09:24:00,
2013-09-27 04:29:00,64.6,60.7,30.01,SSE,163,1.5,3.0,87,0.00,,,0.00,VWS V14.01,2013-09-27 09:29:00,
2013-09-27 04:34:00,64.7,60.8,30.01,SSE,153,0.0,3.0,87,0.00,,,0.00,VWS V14.01,2013-09-27 09:34:00,
2013-09-27 04:39:00,64.7,60.8,30.01,SSE,167,0.0,3.0,87,0.00,,,0.00,VWS V14.01,2013-09-27 09:39:00,
2013-09-27 04:44:00,64.7,60.8,30.01,South,169,0.0,3.0,87,0.00,,,0.00,VWS V14.01,2013-09-27 09:44:00,
2013-09-27 04:49:00,64.7,60.8,30.01,SE,132,0.0,3.0,87,0.00,,,0.00,VWS V14.01,2013-09-27 09:49:00,
2013-09-27 04:54:00,64.8,60.8,30.01,SSE,152,0.0,3.0,87,0.00,,,0.00,VWS V14.01,2013-09-27 09:54:00,
2013-09-27 04:59:00,64.7,60.8,30.01,SE,134,1.5,3.0,87,0.00,,,0.00,VWS V14.01,2013-09-27 09:59:00,
2013-09-27 05:00:00,64.7,60.8,30.01,SSE,158,0.0,4.0,87,0.00,,,0.00,VWS V15.00,2013-09-27 10:00:00,
2013-09-27 05:04:00,64.7,60.8,30.01,ESE,110,0.0,3.0,87,0.00,,,0.00,VWS V14.01,2013-09-27 10:04:00,
2013-09-27 05:09:00,64.6,60.7,30.01,SE,142,1.5,3.0,87,0.00,,,0.00,VWS V14.01,2013-09-27 10:09:00,
2013-09-27 05:14:00,64.6,60.7,30.01,ESE,121,1.5,3.0,87,0.00,,,0.00,VWS V14.01,2013-09-27 10:14:00,
2013-09-27 05:19:00,64.6,60.7,30.01,SSE,150,0.0,3.0,87,0.00,,,0.00,VWS V14.01,2013-09-27 10:19:00,
2013-09-27 05:24:00,64.6,60.7,30.02,SSW,194,1.5,3.0,87,0.00,,,0.00,VWS V14.01,2013-09-27 10:24:00,
2013-09-27 05:29:00,64.5,60.5,30.02,SSE,164,0.0,3.0,87,0.00,,,0.00,VWS V14.01,2013-09-27 10:29:00,
2013-09-27 05:34:00,64.4,60.8,30.02,SSE,150,0.0,3.0,88,0.00,,,0.00,VWS V14.01,2013-09-27 10:34:00,
2013-09-27 05:39:00,64.3,60.7,30.02,SE,125,0.0,3.0,88,0.00,,,0.00,VWS V14.01,2013-09-27 10:39:00,
2013-09-27 05:44:00,64.3,60.7,30.02,WSW,239,0.0,3.0,88,0.00,,,0.00,VWS V14.01,2013-09-27 10:44:00,
2013-09-27 05:49:00,64.2,60.6,30.02,South,186,3.0,3.0,88,0.00,,,0.00,VWS V14.01,2013-09-27 10:49:00,
2013-09-27 05:54:00,64.1,60.5,30.02,SSE,160,0.0,3.0,88,0.00,,,0.00,VWS V14.01,2013-09-27 10:54:00,
2013-09-27 05:59:00,64.1,60.5,30.02,SSE,150,0.0,3.0,88,0.00,,,0.00,VWS V14.01,2013-09-27 10:59:00,
2013-09-27 06:00:00,64.1,60.5,30.02,SSE,150,0.0,3.0,88,0.00,,,0.00,VWS V14.01,2013-09-27 11:00:00,
2013-09-27 06:04:00,64.0,60.4,30.02,South,173,1.5,2.0,88,0.00,,,0.00,VWS V14.01,2013-09-27 11:04:00,
2013-09-27 06:09:00,63.9,60.6,30.02,SSE,156,0.0,4.0,89,0.00,,,0.00,VWS V14.01,2013-09-27 11:09:00,
2013-09-27 06:14:00,63.8,60.5,30.03,SE,139,3.0,4.0,89,0.00,,,0.00,VWS V14.01,2013-09-27 11:14:00,
2013-09-27 06:19:00,63.7,60.4,30.02,SE,127,1.5,5.0,89,0.00,,,0.00,VWS V14.01,2013-09-27 11:19:00,
2013-09-27 06:24:00,63.6,60.3,30.03,South,169,0.0,5.0,89,0.00,,,0.00,VWS V14.01,2013-09-27 11:24:00,
2013-09-27 06:29:00,63.5,60.2,30.03,SSW,194,1.5,5.0,89,0.00,,,0.00,VWS V14.01,2013-09-27 11:29:00,
2013-09-27 06:34:00,63.5,60.2,30.03,SE,124,0.0,5.0,89,0.00,,,0.00,VWS V14.01,2013-09-27 11:34:00,
2013-09-27 06:39:00,63.3,60.3,30.03,SE,136,0.0,5.0,90,0.00,,,0.00,VWS V14.01,2013-09-27 11:39:00,
2013-09-27 06:44:00,63.2,60.2,30.03,SE,143,0.0,5.0,90,0.00,,,0.00,VWS V14.01,2013-09-27 11:44:00,
2013-09-27 06:49:00,63.0,60.0,30.03,SSE,150,0.0,5.0,90,0.00,,,0.00,VWS V14.01,2013-09-27 11:49:00,
2013-09-27 06:54:00,63.0,60.0,30.03,ESE,113,0.0,5.0,90,0.00,,,0.00,VWS V14.01,2013-09-27 11:54:00,
2013-09-27 06:59:00,62.9,60.2,30.03,South,184,0.0,5.0,91,0.00,,,0.00,VWS V14.01,2013-09-27 11:59:00,
2013-09-27 07:00:00,64.1,60.5,30.02,SSE,150,0.0,3.0,88,0.00,,,0.00,VWS V15.00,2013-09-27 12:00:00,
2013-09-27 07:04:00,62.8,60.1,30.03,WSW,245,0.0,5.0,91,0.00,,,0.00,VWS V14.01,2013-09-27 12:04:00,
2013-09-27 07:09:00,62.8,60.1,30.04,SE,129,0.0,5.0,91,0.00,,,0.00,VWS V14.01,2013-09-27 12:09:00,
2013-09-27 07:14:00,62.8,60.1,30.04,ESE,112,0.0,5.0,91,0.00,,,0.00,VWS V14.01,2013-09-27 12:14:00,
2013-09-27 07:19:00,62.7,60.0,30.04,South,181,0.0,5.0,91,0.00,,,0.00,VWS V14.01,2013-09-27 12:19:00,
2013-09-27 07:24:00,62.6,59.9,30.04,SSE,165,0.0,5.0,91,0.00,,,0.00,VWS V14.01,2013-09-27 12:24:00,
2013-09-27 07:29:00,62.6,59.9,30.04,South,189,0.0,5.0,91,0.00,,,0.00,VWS V14.01,2013-09-27 12:29:00,
2013-09-27 07:34:00,62.5,60.2,30.05,South,188,0.0,5.0,92,0.00,,,0.00,VWS V14.01,2013-09-27 12:34:00,
2013-09-27 07:39:00,62.5,59.8,30.04,South,183,0.0,5.0,91,0.00,,,0.00,VWS V14.01,2013-09-27 12:39:00,
2013-09-27 07:44:00,62.5,60.2,30.04,South,183,0.0,5.0,92,0.00,,,0.00,VWS V14.01,2013-09-27 12:44:00,
2013-09-27 07:49:00,62.6,60.2,30.05,South,183,0.0,5.0,92,0.00,,,0.00,VWS V14.01,2013-09-27 12:49:00,
2013-09-27 07:54:00,62.8,60.5,30.04,South,183,0.0,5.0,92,0.00,,,0.00,VWS V14.01,2013-09-27 12:54:00,
2013-09-27 07:59:00,63.2,60.5,30.05,SSE,160,0.0,5.0,91,0.00,,,0.00,VWS V14.01,2013-09-27 12:59:00,
2013-09-27 08:00:00,63.2,60.5,30.05,SSE,160,0.0,5.0,91,0.00,,,0.00,VWS V14.01,2013-09-27 13:00:00,
2013-09-27 08:04:00,63.6,60.9,30.05,SSE,160,0.0,0.0,91,0.00,,,0.00,VWS V14.01,2013-09-27 13:04:00,
2013-09-27 08:09:00,64.1,61.1,30.05,SE,139,0.0,0.0,90,0.00,,,0.00,VWS V14.01,2013-09-27 13:09:00,
2013-09-27 08:14:00,64.6,61.3,30.05,ESE,122,0.0,1.0,89,0.00,,,0.00,VWS V14.01,2013-09-27 13:14:00,
2013-09-27 08:19:00,65.2,61.9,30.05,SE,132,1.5,2.0,89,0.00,,,0.00,VWS V14.01,2013-09-27 13:19:00,
2013-09-27 08:24:00,65.9,62.2,30.05,SE,143,1.5,3.0,88,0.00,,,0.00,VWS V14.01,2013-09-27 13:24:00,
2013-09-27 08:29:00,66.5,62.2,30.05,ESE,115,1.5,4.0,86,0.00,,,0.00,VWS V14.01,2013-09-27 13:29:00,
2013-09-27 08:34:00,67.2,62.5,30.05,SE,146,1.5,4.0,85,0.00,,,0.00,VWS V14.01,2013-09-27 13:34:00,
2013-09-27 08:39:00,67.9,62.5,30.05,SSE,167,1.5,4.0,83,0.00,,,0.00,VWS V14.01,2013-09-27 13:39:00,
2013-09-27 08:44:00,68.5,62.8,30.05,SSE,153,1.5,4.0,82,0.00,,,0.00,VWS V14.01,2013-09-27 13:44:00,
2013-09-27 08:49:00,69.1,63.0,30.05,SE,129,0.0,6.0,81,0.00,,,0.00,VWS V14.01,2013-09-27 13:49:00,
2013-09-27 08:54:00,69.8,63.4,30.05,South,177,1.5,6.0,80,0.00,,,0.00,VWS V14.01,2013-09-27 13:54:00,
2013-09-27 08:59:00,71.0,63.4,30.05,ESE,119,1.5,6.0,77,0.00,,,0.00,VWS V14.01,2013-09-27 13:59:00,
2013-09-27 09:00:00,63.2,60.5,30.05,SSE,160,0.0,5.0,91,0.00,,,0.00,VWS V15.00,2013-09-27 14:00:00,
2013-09-27 09:04:00,71.7,63.7,30.05,South,174,3.0,6.0,76,0.00,,,0.00,VWS V14.01,2013-09-27 14:04:00,
2013-09-27 09:09:00,72.3,63.9,30.05,SSE,150,3.0,6.0,75,0.00,,,0.00,VWS V14.01,2013-09-27 14:09:00,
2013-09-27 09:14:00,72.6,64.2,30.05,ESE,118,3.0,7.0,75,0.00,,,0.00,VWS V14.01,2013-09-27 14:14:00,
2013-09-27 09:19:00,73.0,64.2,30.05,South,186,6.0,9.0,74,0.00,,,0.00,VWS V14.01,2013-09-27 14:19:00,
2013-09-27 09:24:00,73.3,64.5,30.05,SSE,165,3.0,9.0,74,0.00,,,0.00,VWS V14.01,2013-09-27 14:24:00,
2013-09-27 09:29:00,73.7,64.5,30.05,SSE,160,1.5,9.0,73,0.00,,,0.00,VWS V14.01,2013-09-27 14:29:00,
2013-09-27 09:34:00,74.0,64.8,30.06,SSE,165,1.5,9.0,73,0.00,,,0.00,VWS V14.01,2013-09-27 14:34:00,
2013-09-27 09:39:00,74.4,64.8,30.06,SW,228,4.5,9.0,72,0.00,,,0.00,VWS V14.01,2013-09-27 14:39:00,
2013-09-27 09:44:00,74.8,65.2,30.06,SSE,159,3.0,9.0,72,0.00,,,0.00,VWS V14.01,2013-09-27 14:44:00,
2013-09-27 09:49:00,75.1,64.7,30.06,SSE,160,10.5,10.5,70,0.00,,,0.00,VWS V14.01,2013-09-27 14:49:00,
2013-09-27 09:54:00,75.1,64.7,30.06,SSE,149,7.5,9.0,70,0.00,,,0.00,VWS V14.01,2013-09-27 14:54:00,
2013-09-27 09:59:00,75.4,64.9,30.06,South,176,3.0,9.0,70,0.00,,,0.00,VWS V14.01,2013-09-27 14:59:00,
2013-09-27 10:00:00,75.4,64.9,30.06,SSE,166,3.0,9.0,70,0.00,,,0.00,VWS V14.01,2013-09-27 15:00:00,
2013-09-27 10:04:00,75.9,64.6,30.06,SSE,160,9.0,10.0,68,0.00,,,0.00,VWS V14.01,2013-09-27 15:04:00,
2013-09-27 10:09:00,76.2,64.9,30.06,SSE,157,4.5,10.0,68,0.00,,,0.00,VWS V14.01,2013-09-27 15:09:00,
2013-09-27 10:14:00,76.6,65.3,30.06,SSE,155,7.5,10.0,68,0.00,,,0.00,VWS V14.01,2013-09-27 15:14:00,
2013-09-27 10:19:00,76.9,64.7,30.06,SSE,158,4.5,11.0,66,0.00,,,0.00,VWS V14.01,2013-09-27 15:19:00,
2013-09-27 10:24:00,77.3,65.5,30.06,South,191,4.5,11.0,67,0.00,,,0.00,VWS V14.01,2013-09-27 15:24:00,
2013-09-27 10:29:00,77.7,65.0,30.06,SW,219,4.5,11.0,65,0.00,,,0.00,VWS V14.01,2013-09-27 15:29:00,
2013-09-27 10:34:00,77.8,65.5,30.06,South,191,3.0,11.0,66,0.00,,,0.00,VWS V14.01,2013-09-27 15:34:00,
2013-09-27 10:39:00,78.0,65.3,30.06,SE,145,6.0,11.0,65,0.00,,,0.00,VWS V14.01,2013-09-27 15:39:00,
2013-09-27 10:44:00,78.4,65.2,30.06,SSE,150,3.0,11.0,64,0.00,,,0.00,VWS V14.01,2013-09-27 15:44:00,
2013-09-27 10:49:00,78.7,64.6,30.06,South,180,3.0,11.0,62,0.00,,,0.00,VWS V14.01,2013-09-27 15:49:00,
2013-09-27 10:54:00,78.8,64.2,30.06,SSE,160,6.0,11.0,61,0.00,,,0.00,VWS V14.01,2013-09-27 15:54:00,
2013-09-27 10:59:00,79.0,64.4,30.06,SE,146,3.0,11.0,61,0.00,,,0.00,VWS V14.01,2013-09-27 15:59:00,
2013-09-27 11:00:00,75.4,64.9,30.06,SSE,166,3.0,9.0,70,0.00,,,0.00,VWS V15.00,2013-09-27 16:00:00,
2013-09-27 11:04:00,79.3,64.7,30.06,SE,145,10.5,11.0,61,0.00,,,0.00,VWS V14.01,2013-09-27 16:04:00,
2013-09-27 11:09:00,79.6,65.0,30.06,South,174,4.5,11.0,61,0.00,,,0.00,VWS V14.01,2013-09-27 16:09:00,
2013-09-27 11:14:00,79.8,65.2,30.05,SSE,150,3.0,11.0,61,0.00,,,0.00,VWS V14.01,2013-09-27 16:14:00,
2013-09-27 11:19:00,80.1,65.0,30.05,SSE,148,6.0,11.0,60,0.00,,,0.00,VWS V14.01,2013-09-27 16:19:00,
2013-09-27 11:24:00,80.5,65.3,30.05,South,184,7.5,11.0,60,0.00,,,0.00,VWS V14.01,2013-09-27 16:24:00,
2013-09-27 11:29:00,81.0,65.8,30.05,SW,217,3.0,11.0,60,0.00,,,0.00,VWS V14.01,2013-09-27 16:29:00,
2013-09-27 11:34:00,81.4,64.7,30.05,SSE,168,3.0,11.0,57,0.00,,,0.00,VWS V14.01,2013-09-27 16:34:00,
2013-09-27 11:39:00,81.7,65.0,30.05,SSE,162,10.5,11.0,57,0.00,,,0.00,VWS V14.01,2013-09-27 16:39:00,
2013-09-27 11:44:00,81.6,64.4,30.05,SSW,195,9.0,11.0,56,0.00,,,0.00,VWS V14.01,2013-09-27 16:44:00,
2013-09-27 11:49:00,81.6,64.4,30.05,South,185,6.0,11.0,56,0.00,,,0.00,VWS V14.01,2013-09-27 16:49:00,
2013-09-27 11:54:00,81.6,64.9,30.05,SW,224,3.0,11.0,57,0.00,,,0.00,VWS V14.01,2013-09-27 16:54:00,
2013-09-27 11:59:00,81.5,64.3,30.04,SW,219,3.0,11.0,56,0.00,,,0.00,VWS V14.01,2013-09-27 16:59:00,
2013-09-27 12:00:00,81.6,65.4,30.05,East,91,6.0,11.0,58,0.00,,,0.00,VWS V14.01,2013-09-27 17:00:00,
2013-09-27 12:04:00,81.4,64.2,30.04,SSW,208,6.0,12.0,56,0.00,,,0.00,VWS V14.01,2013-09-27 17:04:00,
2013-09-27 12:09:00,81.2,65.0,30.04,South,174,1.5,12.0,58,0.00,,,0.00,VWS V14.01,2013-09-27 17:09:00,
2013-09-27 12:14:00,81.3,64.6,30.04,SSW,197,7.5,12.0,57,0.00,,,0.00,VWS V14.01,2013-09-27 17:14:00,
2013-09-27 12:19:00,81.5,64.8,30.04,SSW,208,1.5,12.0,57,0.00,,,0.00,VWS V14.01,2013-09-27 17:19:00,
2013-09-27 12:24:00,81.4,64.2,30.04,SSE,167,4.5,12.0,56,0.00,,,0.00,VWS V14.01,2013-09-27 17:24:00,
2013-09-27 12:26:00,81.5,64.3,30.04,SSE,165,4.5,12.0,56,0.00,,,0.00,VWS V14.01,2013-09-27 17:26:00,
2013-09-27 12:31:00,81.5,64.8,30.04,SE,134,3.0,12.0,57,0.00,,,0.00,VWS V14.01,2013-09-27 17:31:00,
2013-09-27 12:36:00,81.7,65.0,30.04,South,175,12.0,12.0,57,0.00,,,0.00,VWS V14.01,2013-09-27 17:36:00,
2013-09-27 12:41:00,81.8,64.6,30.04,SSE,158,6.0,12.0,56,0.00,,,0.00,VWS V14.01,2013-09-27 17:41:00,
2013-09-27 12:46:00,82.1,64.9,30.04,ESE,109,6.0,12.0,56,0.00,,,0.00,VWS V14.01,2013-09-27 17:46:00,
2013-09-27 12:51:00,82.3,64.0,30.04,SW,225,7.5,12.0,54,0.00,,,0.00,VWS V14.01,2013-09-27 17:51:00,
2013-09-27 12:56:00,82.0,64.3,30.03,SE,145,4.5,12.0,55,0.00,,,0.00,VWS V14.01,2013-09-27 17:56:00,
2013-09-27 13:00:00,81.6,65.4,30.05,East,91,6.0,11.0,58,0.00,,,0.00,VWS V15.00,2013-09-27 18:00:00,
2013-09-27 13:01:00,82.3,64.0,30.03,NNE,16,6.0,12.0,54,0.00,,,0.00,VWS V14.01,2013-09-27 18:01:00,
2013-09-27 13:06:00,82.7,64.4,30.03,East,86,4.5,12.0,54,0.00,,,0.00,VWS V14.01,2013-09-27 18:06:00,
2013-09-27 13:11:00,83.0,64.1,30.03,ESE,116,1.5,12.0,53,0.00,,,0.00,VWS V14.01,2013-09-27 18:11:00,
2013-09-27 13:16:00,83.1,64.2,30.02,SSE,156,1.5,12.0,53,0.00,,,0.00,VWS V14.01,2013-09-27 18:16:00,
2013-09-27 13:21:00,82.9,64.6,30.02,SSW,207,7.5,12.0,54,0.00,,,0.00,VWS V14.01,2013-09-27 18:21:00,
2013-09-27 13:26:00,82.9,64.0,30.02,South,177,3.0,12.0,53,0.00,,,0.00,VWS V14.01,2013-09-27 18:26:00,
2013-09-27 13:31:00,82.9,64.6,30.02,SSE,166,10.5,12.0,54,0.00,,,0.00,VWS V14.01,2013-09-27 18:31:00,
2013-09-27 13:36:00,83.0,64.7,30.02,SSW,203,6.0,12.0,54,0.00,,,0.00,VWS V14.01,2013-09-27 18:36:00,
2013-09-27 13:41:00,83.2,64.8,30.01,ESE,120,1.5,12.0,54,0.00,,,0.00,VWS V14.01,2013-09-27 18:41:00,
2013-09-27 13:46:00,83.4,64.0,30.01,SE,139,7.5,12.0,52,0.00,,,0.00,VWS V14.01,2013-09-27 18:46:00,
2013-09-27 13:51:00,83.4,65.0,30.01,SE,134,1.5,12.0,54,0.00,,,0.00,VWS V14.01,2013-09-27 18:51:00,
2013-09-27 13:56:00,83.8,64.9,30.01,ESE,122,6.0,12.0,53,0.00,,,0.00,VWS V14.01,2013-09-27 18:56:00,
2013-09-27 14:00:00,83.8,64.3,30.01,ESE,109,1.5,12.0,52,0.00,,,0.00,VWS V14.01,2013-09-27 19:00:00,
2013-09-27 14:01:00,83.9,63.8,30.01,East,94,4.5,5.0,51,0.00,,,0.00,VWS V14.01,2013-09-27 19:01:00,
2013-09-27 14:06:00,84.1,64.0,30.00,SSE,153,1.5,6.0,51,0.00,,,0.00,VWS V14.01,2013-09-27 19:06:00,
2013-09-27 14:11:00,83.8,63.8,30.00,South,186,3.0,6.0,51,0.00,,,0.00,VWS V14.01,2013-09-27 19:11:00,
2013-09-27 14:16:00,83.8,63.2,30.00,SSW,198,3.0,8.0,50,0.00,,,0.00,VWS V14.01,2013-09-27 19:16:00,
2013-09-27 14:21:00,84.0,63.9,30.00,ESE,120,1.5,9.0,51,0.00,,,0.00,VWS V14.01,2013-09-27 19:21:00,
2013-09-27 14:26:00,84.2,63.6,29.99,South,179,9.0,9.0,50,0.00,,,0.00,VWS V14.01,2013-09-27 19:26:00,
2013-09-27 14:31:00,84.3,64.8,29.99,SSE,165,4.5,9.0,52,0.00,,,0.00,VWS V14.01,2013-09-27 19:31:00,
2013-09-27 14:36:00,84.1,63.5,29.99,SSE,166,6.0,9.0,50,0.00,,,0.00,VWS V14.01,2013-09-27 19:36:00,
2013-09-27 14:41:00,84.1,64.6,29.99,East,84,0.0,9.0,52,0.00,,,0.00,VWS V14.01,2013-09-27 19:41:00,
2013-09-27 14:46:00,84.3,63.7,29.99,ENE,65,7.5,9.0,50,0.00,,,0.00,VWS V14.01,2013-09-27 19:46:00,
2013-09-27 14:51:00,84.1,64.6,29.99,SSE,152,3.0,9.0,52,0.00,,,0.00,VWS V14.01,2013-09-27 19:51:00,
2013-09-27 14:56:00,84.3,63.7,29.99,South,188,4.5,9.0,50,0.00,,,0.00,VWS V14.01,2013-09-27 19:56:00,
2013-09-27 15:00:00,83.8,64.3,30.01,ESE,109,1.5,12.0,52,0.00,,,0.00,VWS V15.00,2013-09-27 20:00:00,
2013-09-27 15:01:00,84.4,63.2,29.98,South,181,3.0,9.0,49,0.00,,,0.00,VWS V14.01,2013-09-27 20:01:00,
2013-09-27 15:06:00,84.3,63.1,29.99,East,98,3.0,9.0,49,0.00,,,0.00,VWS V14.01,2013-09-27 20:06:00,
2013-09-27 15:11:00,84.3,62.5,29.98,South,179,13.5,13.5,48,0.00,,,0.00,VWS V14.01,2013-09-27 20:11:00,
2013-09-27 15:16:00,84.2,62.4,29.98,East,82,3.0,10.0,48,0.00,,,0.00,VWS V14.01,2013-09-27 20:16:00,
2013-09-27 15:21:00,84.1,63.5,29.98,East,99,1.5,10.0,50,0.00,,,0.00,VWS V14.01,2013-09-27 20:21:00,
2013-09-27 15:26:00,84.5,62.7,29.98,SSW,204,3.0,10.0,48,0.00,,,0.00,VWS V14.01,2013-09-27 20:26:00,
2013-09-27 15:31:00,84.2,61.8,29.98,SSE,163,4.5,10.0,47,0.00,,,0.00,VWS V14.01,2013-09-27 20:31:00,
2013-09-27 15:36:00,84.2,62.4,29.98,SSW,194,1.5,10.0,48,0.00,,,0.00,VWS V14.01,2013-09-27 20:36:00,
2013-09-27 15:41:00,83.8,62.6,29.98,SSW,203,1.5,10.0,49,0.00,,,0.00,VWS V14.01,2013-09-27 20:41:00,
2013-09-27 15:46:00,83.7,63.1,29.98,SSW,203,9.0,10.0,50,0.00,,,0.00,VWS V14.01,2013-09-27 20:46:00,
2013-09-27 15:51:00,83.4,62.3,29.97,SSE,155,4.5,10.0,49,0.00,,,0.00,VWS V14.01,2013-09-27 20:51:00,
2013-09-27 15:56:00,83.3,63.3,29.97,SSW,212,9.0,10.0,51,0.00,,,0.00,VWS V14.01,2013-09-27 20:56:00,
2013-09-27 16:00:00,83.1,63.1,29.97,SW,226,7.5,11.0,51,0.00,,,0.00,VWS V14.01,2013-09-27 21:00:00,
2013-09-27 16:01:00,83.0,63.0,29.97,SSE,155,3.0,3.0,51,0.00,,,0.00,VWS V14.01,2013-09-27 21:01:00,
2013-09-27 16:06:00,83.0,63.0,29.97,ESE,111,6.0,10.0,51,0.00,,,0.00,VWS V14.01,2013-09-27 21:06:00,
2013-09-27 16:11:00,83.2,63.2,29.97,SSE,160,6.0,10.0,51,0.00,,,0.00,VWS V14.01,2013-09-27 21:11:00,
2013-09-27 16:16:00,83.2,63.2,29.97,East,101,3.0,10.0,51,0.00,,,0.00,VWS V14.01,2013-09-27 21:16:00,
2013-09-27 16:21:00,83.2,62.1,29.98,South,183,1.5,11.0,49,0.00,,,0.00,VWS V14.01,2013-09-27 21:21:00,
2013-09-27 16:26:00,83.0,62.5,29.98,ENE,70,0.0,11.0,50,0.00,,,0.00,VWS V14.01,2013-09-27 21:26:00,
2013-09-27 16:31:00,83.0,61.3,29.98,SW,215,9.0,11.0,48,0.00,,,0.00,VWS V14.01,2013-09-27 21:31:00,
2013-09-27 16:36:00,82.7,61.0,29.97,SSE,156,4.5,12.0,48,0.00,,,0.00,VWS V14.01,2013-09-27 21:36:00,
2013-09-27 16:41:00,82.4,61.3,29.98,South,181,6.0,12.0,49,0.00,,,0.00,VWS V14.01,2013-09-27 21:41:00,
2013-09-27 16:46:00,82.2,61.7,29.98,South,179,9.0,12.0,50,0.00,,,0.00,VWS V14.01,2013-09-27 21:46:00,
2013-09-27 16:51:00,82.3,61.8,29.98,SW,235,6.0,12.0,50,0.00,,,0.00,VWS V14.01,2013-09-27 21:51:00,
2013-09-27 16:56:00,82.1,61.1,29.97,SSE,167,4.5,13.0,49,0.00,,,0.00,VWS V14.01,2013-09-27 21:56:00,
2013-09-27 17:00:00,83.1,63.1,29.97,SW,226,7.5,11.0,51,0.00,,,0.00,VWS V15.00,2013-09-27 22:00:00,
2013-09-27 17:01:00,82.1,61.6,29.97,SE,146,6.0,13.0,50,0.00,,,0.00,VWS V14.01,2013-09-27 22:01:00,
2013-09-27 17:06:00,81.9,62.0,29.97,East,93,3.0,13.0,51,0.00,,,0.00,VWS V14.01,2013-09-27 22:06:00,
2013-09-27 17:11:00,81.8,61.9,29.97,South,175,4.5,13.0,51,0.00,,,0.00,VWS V14.01,2013-09-27 22:11:00,
2013-09-27 17:16:00,81.8,62.5,29.97,East,94,4.5,13.0,52,0.00,,,0.00,VWS V14.01,2013-09-27 22:16:00,
2013-09-27 17:21:00,81.6,61.7,29.97,South,188,4.5,13.0,51,0.00,,,0.00,VWS V14.01,2013-09-27 22:21:00,
2013-09-27 17:26:00,81.6,61.2,29.97,SE,136,3.0,13.0,50,0.00,,,0.00,VWS V14.01,2013-09-27 22:26:00,
2013-09-27 17:31:00,81.6,61.7,29.98,WSW,240,4.5,13.0,51,0.00,,,0.00,VWS V14.01,2013-09-27 22:31:00,
2013-09-27 17:36:00,81.4,61.5,29.98,SW,233,4.5,13.0,51,0.00,,,0.00,VWS V14.01,2013-09-27 22:36:00,
2013-09-27 17:41:00,81.1,61.3,29.98,South,184,6.0,13.0,51,0.00,,,0.00,VWS V14.01,2013-09-27 22:41:00,
2013-09-27 17:46:00,81.0,61.2,29.98,South,185,3.0,13.0,51,0.00,,,0.00,VWS V14.01,2013-09-27 22:46:00,
2013-09-27 17:51:00,80.9,60.5,29.97,South,172,4.5,13.0,50,0.00,,,0.00,VWS V14.01,2013-09-27 22:51:00,
2013-09-27 17:56:00,80.8,60.4,29.97,South,169,7.5,13.0,50,0.00,,,0.00,VWS V14.01,2013-09-27 22:56:00,
2013-09-27 18:00:00,80.7,60.9,29.98,SSW,207,9.0,13.0,51,0.00,,,0.00,VWS V14.01,2013-09-27 23:00:00,
2013-09-27 18:01:00,80.7,60.9,29.98,South,190,3.0,6.0,51,0.00,,,0.00,VWS V14.01,2013-09-27 23:01:00,
2013-09-27 18:06:00,80.5,60.7,29.98,SSE,155,3.0,9.0,51,0.00,,,0.00,VWS V14.01,2013-09-27 23:06:00,
2013-09-27 18:11:00,80.3,61.1,29.97,SSE,168,4.5,9.0,52,0.00,,,0.00,VWS V14.01,2013-09-27 23:11:00,
2013-09-27 18:16:00,80.2,61.0,29.97,SSE,158,9.0,9.0,52,0.00,,,0.00,VWS V14.01,2013-09-27 23:16:00,
2013-09-27 18:21:00,80.1,61.4,29.97,South,177,1.5,9.0,53,0.00,,,0.00,VWS V14.01,2013-09-27 23:21:00,
2013-09-27 18:26:00,80.0,61.9,29.97,South,177,1.5,9.0,54,0.00,,,0.00,VWS V14.01,2013-09-27 23:26:00,
2013-09-27 18:31:00,79.7,61.6,29.97,SSW,193,1.5,9.0,54,0.00,,,0.00,VWS V14.01,2013-09-27 23:31:00,
2013-09-27 18:36:00,79.5,61.9,29.97,SSE,150,3.0,9.0,55,0.00,,,0.00,VWS V14.01,2013-09-27 23:36:00,
2013-09-27 18:41:00,79.3,61.8,29.97,SW,226,0.0,9.0,55,0.00,,,0.00,VWS V14.01,2013-09-27 23:41:00,
2013-09-27 18:46:00,79.1,61.6,29.97,SSE,166,3.0,9.0,55,0.00,,,0.00,VWS V14.01,2013-09-27 23:46:00,
2013-09-27 18:51:00,78.9,61.9,29.98,SE,138,0.0,9.0,56,0.00,,,0.00,VWS V14.01,2013-09-27 23:51:00,
2013-09-27 18:56:00,78.6,61.6,29.97,SSE,166,1.5,9.0,56,0.00,,,0.00,VWS V14.01,2013-09-27 23:56:00,
2013-09-27 19:00:00,80.7,60.9,29.98,SSW,207,9.0,13.0,51,0.00,,,0.00,VWS V15.00,2013-09-28 00:00:00,
2013-09-27 19:01:00,78.5,62.0,29.97,South,176,3.0,9.0,57,0.00,,,0.00,VWS V14.01,2013-09-28 00:01:00,
2013-09-27 19:06:00,78.3,61.8,29.97,SSE,153,0.0,9.0,57,0.00,,,0.00,VWS V14.01,2013-09-28 00:06:00,
2013-09-27 19:11:00,78.0,62.0,29.97,South,176,0.0,9.0,58,0.00,,,0.00,VWS V14.01,2013-09-28 00:11:00,
2013-09-27 19:16:00,77.7,62.2,29.97,ESE,111,3.0,9.0,59,0.00,,,0.00,VWS V14.01,2013-09-28 00:16:00,
2013-09-27 19:21:00,77.4,62.0,29.97,SE,132,0.0,9.0,59,0.00,,,0.00,VWS V14.01,2013-09-28 00:21:00,
2013-09-27 19:26:00,77.1,62.2,29.97,SE,138,1.5,9.0,60,0.00,,,0.00,VWS V14.01,2013-09-28 00:26:00,
2013-09-27 19:31:00,76.9,62.4,29.97,SE,127,0.0,9.0,61,0.00,,,0.00,VWS V14.01,2013-09-28 00:31:00,
2013-09-27 19:36:00,76.5,62.1,29.97,SSE,150,0.0,9.0,61,0.00,,,0.00,VWS V14.01,2013-09-28 00:36:00,
2013-09-27 19:41:00,76.1,62.2,29.97,SSE,160,0.0,9.0,62,0.00,,,0.00,VWS V14.01,2013-09-28 00:41:00,
2013-09-27 19:46:00,75.9,62.4,29.97,SE,146,0.0,9.0,63,0.00,,,0.00,VWS V14.01,2013-09-28 00:46:00,
2013-09-27 19:51:00,75.7,62.2,29.97,SE,128,0.0,9.0,63,0.00,,,0.00,VWS V14.01,2013-09-28 00:51:00,
2013-09-27 20:21:00,74.6,62.5,29.97,SSE,165,0.0,0.0,66,0.00,,,0.00,VWS V14.01,2013-09-28 01:21:00,
2013-09-27 20:26:00,74.5,62.4,29.97,SSE,154,0.0,2.0,66,0.00,,,0.00,VWS V14.01,2013-09-28 01:26:00,
2013-09-27 20:31:00,74.4,62.3,29.97,SE,129,1.5,2.0,66,0.00,,,0.00,VWS V14.01,2013-09-28 01:31:00,
2013-09-27 20:36:00,74.4,62.7,29.97,SE,138,0.0,3.0,67,0.00,,,0.00,VWS V14.01,2013-09-28 01:36:00,
2013-09-27 20:41:00,74.2,62.5,29.97,SE,135,1.5,3.0,67,0.00,,,0.00,VWS V14.01,2013-09-28 01:41:00,
2013-09-27 20:46:00,74.1,62.5,29.97,SE,138,1.5,4.0,67,0.00,,,0.00,VWS V14.01,2013-09-28 01:46:00,
2013-09-27 20:51:00,74.0,62.4,29.97,SE,129,1.5,5.0,67,0.00,,,0.00,VWS V14.01,2013-09-28 01:51:00,
2013-09-27 20:56:00,73.9,62.3,29.97,SSE,156,1.5,5.0,67,0.00,,,0.00,VWS V14.01,2013-09-28 01:56:00,
2013-09-27 21:01:00,73.8,62.2,29.97,ESE,107,0.0,5.0,67,0.00,,,0.00,VWS V14.01,2013-09-28 02:01:00,
2013-09-27 21:06:00,73.6,62.0,29.97,South,174,1.5,5.0,67,0.00,,,0.00,VWS V14.01,2013-09-28 02:06:00,
2013-09-27 21:11:00,73.5,61.9,29.97,SW,222,4.5,7.0,67,0.00,,,0.00,VWS V14.01,2013-09-28 02:11:00,
2013-09-27 21:16:00,73.4,61.8,29.97,SSW,212,3.0,7.0,67,0.00,,,0.00,VWS V14.01,2013-09-28 02:16:00,
2013-09-27 21:21:00,73.3,62.1,29.98,SSE,155,6.0,7.0,68,0.00,,,0.00,VWS V14.01,2013-09-28 02:21:00,
2013-09-27 21:26:00,73.2,62.0,29.98,South,176,3.0,7.0,68,0.00,,,0.00,VWS V14.01,2013-09-28 02:26:00,
2013-09-27 21:31:00,72.9,61.7,29.98,South,188,1.5,7.0,68,0.00,,,0.00,VWS V14.01,2013-09-28 02:31:00,
2013-09-27 21:36:00,72.8,62.0,29.98,SSW,204,0.0,7.0,69,0.00,,,0.00,VWS V14.01,2013-09-28 02:36:00,
2013-09-27 21:41:00,72.5,61.8,29.98,SSE,166,0.0,7.0,69,0.00,,,0.00,VWS V14.01,2013-09-28 02:41:00,
2013-09-27 21:46:00,72.3,61.6,29.98,SSE,156,0.0,7.0,69,0.00,,,0.00,VWS V14.01,2013-09-28 02:46:00,
2013-09-27 21:51:00,72.1,61.8,29.98,SE,131,0.0,7.0,70,0.00,,,0.00,VWS V14.01,2013-09-28 02:51:00,
2013-09-27 21:56:00,71.9,61.6,29.98,SSE,158,3.0,7.0,70,0.00,,,0.00,VWS V14.01,2013-09-28 02:56:00,
2013-09-27 22:00:00,71.7,61.8,29.98,South,179,0.0,7.0,71,0.00,,,0.00,VWS V14.01,2013-09-28 03:00:00,
2013-09-27 22:01:00,71.7,61.8,29.98,South,172,0.0,1.0,71,0.00,,,0.00,VWS V14.01,2013-09-28 03:01:00,
2013-09-27 22:06:00,71.5,61.6,29.98,SSE,156,0.0,3.0,71,0.00,,,0.00,VWS V14.01,2013-09-28 03:06:00,
2013-09-27 22:11:00,71.3,61.4,29.98,SSE,153,1.5,3.0,71,0.00,,,0.00,VWS V14.01,2013-09-28 03:11:00,
2013-09-27 22:16:00,71.2,61.3,29.98,South,176,0.0,3.0,71,0.00,,,0.00,VWS V14.01,2013-09-28 03:16:00,
2013-09-27 22:21:00,71.1,61.6,29.99,SE,145,0.0,3.0,72,0.00,,,0.00,VWS V14.01,2013-09-28 03:21:00,
2013-09-27 22:26:00,71.0,61.5,29.99,South,169,3.0,3.0,72,0.00,,,0.00,VWS V14.01,2013-09-28 03:26:00,
2013-09-27 22:31:00,70.8,61.3,29.99,East,96,1.5,3.0,72,0.00,,,0.00,VWS V14.01,2013-09-28 03:31:00,
2013-09-27 22:36:00,70.6,61.5,29.99,ESE,118,0.0,3.0,73,0.00,,,0.00,VWS V14.01,2013-09-28 03:36:00,
2013-09-27 22:41:00,70.4,61.3,29.99,South,169,1.5,3.0,73,0.00,,,0.00,VWS V14.01,2013-09-28 03:41:00,
2013-09-27 22:46:00,70.3,61.2,29.99,ESE,121,0.0,3.0,73,0.00,,,0.00,VWS V14.01,2013-09-28 03:46:00,
2013-09-27 22:51:00,70.2,61.5,29.99,South,169,0.0,3.0,74,0.00,,,0.00,VWS V14.01,2013-09-28 03:51:00,
2013-09-27 22:56:00,70.1,61.4,29.99,SSE,148,0.0,3.0,74,0.00,,,0.00,VWS V14.01,2013-09-28 03:56:00,
2013-09-27 23:00:00,71.7,61.8,29.98,South,179,0.0,7.0,71,0.00,,,0.00,VWS V15.00,2013-09-28 04:00:00,
2013-09-27 23:01:00,69.9,61.2,29.99,SSE,159,0.0,3.0,74,0.00,,,0.00,VWS V14.01,2013-09-28 04:01:00,
2013-09-27 23:06:00,69.8,61.5,29.99,SE,139,0.0,3.0,75,0.00,,,0.00,VWS V14.01,2013-09-28 04:06:00,
2013-09-27 23:11:00,69.6,61.3,29.99,South,169,1.5,3.0,75,0.00,,,0.00,VWS V14.01,2013-09-28 04:11:00,
2013-09-27 23:16:00,69.6,61.3,29.99,SE,145,0.0,3.0,75,0.00,,,0.00,VWS V14.01,2013-09-28 04:16:00,
2013-09-27 23:21:00,69.4,61.5,29.99,SSE,155,0.0,3.0,76,0.00,,,0.00,VWS V14.01,2013-09-28 04:21:00,
2013-09-27 23:26:00,69.3,61.4,29.99,SSE,148,0.0,3.0,76,0.00,,,0.00,VWS V14.01,2013-09-28 04:26:00,
2013-09-27 23:31:00,69.2,61.3,29.99,SSE,148,0.0,3.0,76,0.00,,,0.00,VWS V14.01,2013-09-28 04:31:00,
2013-09-27 23:36:00,69.0,61.1,29.99,SE,145,0.0,3.0,76,0.00,,,0.00,VWS V14.01,2013-09-28 04:36:00,
2013-09-27 23:41:00,68.9,61.4,29.99,South,170,1.5,3.0,77,0.00,,,0.00,VWS V14.01,2013-09-28 04:41:00,
2013-09-27 23:46:00,68.9,61.4,29.99,South,172,1.5,3.0,77,0.00,,,0.00,VWS V14.01,2013-09-28 04:46:00,
2013-09-27 23:51:00,69.0,61.5,29.99,SSE,152,1.5,3.0,77,0.00,,,0.00,VWS V14.01,2013-09-28 04:51:00,
2013-09-27 23:56:00,69.2,61.7,29.99,SSE,162,0.0,4.0,77,0.00,,,0.00,VWS V14.01,2013-09-28 04:56:00,